Location: Bucharest
(44.4268°N, 26.1025°E)
Time: 01:28:49
(UTC+03:00)

O/OREOS (USA 219) - Pass Details

Date: 09 July 2022
Orbit: 621 x 646 km, 72.0° (Epoch: 22 May)

Event Time Altitude Azimuth Distance (km) Brightness Sun altitude
Rises 22:48:26 0° 346° (NNW) 2,967 ? -14.7°
Reaches altitude 10° 22:51:07 10° 360° (N) 2,054 ? -15.0°
Maximum altitude 22:54:52 24° 54° (NE) 1,338 ? -15.4°
Enters shadow 22:57:28 15° 98° (E) 1,712 ? -15.7°
